Theta_e
301 304 308 310 312 314 316 314 314 314 314 314 313 313 312 312 312 311 310 310 309 308 307 306 305 305 304 305 305 304 303 302 302 302 302 303 304 304 302 301 300 299
299 300 303 306 309 312 314 315 315 314 314 314 314 314 313 312 312 311 310 310 308 308 308 307 305 304 303 303 304 303 302 302 302 301 300 300 300 301 302 301 300 300
297 298 299 301 304 307 312 314 314 314 314 314 315 315 313 311 311 312 311 310 309 308 308 306 304 304 303 303 302 302 301 301 301 301 301 299 299 299 300 300 300 299
296 297 297 298 300 302 308 313 313 313 313 314 314 314 313 312 311 310 311 307 309 308 308 305 304 303 302 302 302 302 302 302 302 300 301 300 299 298 297 297 298 297
295 296 296 296 298 299 303 310 311 312 313 314 314 314 312 311 310 310 310 309 309 308 308 305 305 303 302 301 301 301 301 301 300 299 300 298 299 299 297 295 295 295
295 295 295 295 296 297 299 307 311 311 311 312 313 313 313 312 310 309 307 308 308 307 307 306 304 303 302 302 300 300 299 300 298 298 298 298 296 296 297 295 294 295
294 294 294 295 295 295 296 300 310 309 311 311 311 312 312 311 310 308 307 307 307 306 304 304 304 303 302 302 300 299 298 299 296 296 296 297 296 294 293 293 293 293
293 294 294 294 294 294 295 297 306 309 310 310 310 311 312 311 310 309 307 306 306 305 304 303 303 302 302 301 300 299 297 297 296 295 296 295 294 293 293 293 294 293
293 293 293 293 293 293 294 295 299 308 309 309 310 310 310 311 311 310 307 306 305 304 302 303 302 302 301 301 300 299 297 296 296 296 295 294 293 293 293 293 292 291
292 293 293 293 292 292 293 294 295 303 307 307 307 309 310 310 311 310 308 306 305 303 303 302 301 301 300 300 300 299 298 296 295 296 296 295 294 294 293 292 292 291
291 292 292 292 292 292 292 293 294 298 306 307 307 305 305 306 308 308 308 306 305 303 302 301 301 300 300 299 300 300 299 297 296 296 296 295 295 295 293 292 292 292
291 291 291 291 292 292 292 293 293 295 303 305 307 305 305 304 304 304 305 305 305 303 302 301 301 301 300 299 299 299 299 298 296 296 296 296 295 295 293 293 292 293
290 291 291 291 291 291 292 292 292 293 298 302 303 305 303 303 303 303 303 304 304 303 301 301 300 300 300 299 299 299 298 297 296 296 296 296 295 295 294 293 293 293
290 290 291 291 291 291 291 291 292 292 296 301 301 303 303 303 303 303 302 303 303 301 301 301 300 299 299 298 299 299 298 297 295 294 293 294 294 294 294 293 293 293
290 290 291 291 290 291 290 291 291 292 294 298 298 302 302 303 303 303 301 300 301 302 301 300 300 300 300 298 298 297 296 294 293 293 293 293 293 294 294 294 293 293
289 289 290 290 290 289 290 290 290 291 292 294 297 298 301 301 301 302 301 300 300 299 299 299 300 301 297 296 297 297 296 295 294 293 293 293 292 292 292 293 293 293
289 289 289 289 289 289 289 289 289 290 291 292 295 297 297 297 299 300 300 301 300 299 298 298 299 300 296 298 298 298 298 295 294 293 292 292 292 291 291 291 292 293
288 288 288 288 288 288 288 288 289 289 290 291 293 295 296 297 297 299 300 300 300 299 298 298 299 297 297 297 298 298 296 295 295 294 292 293 292 292 292 292 292 291
287 287 287 287 288 288 288 288 288 289 289 291 292 294 295 295 297 297 297 298 298 297 297 297 297 297 298 297 297 298 297 296 295 294 293 293 293 292 292 292 292 292
285 286 287 287 288 288 288 288 288 288 289 291 292 293 294 293 294 295 296 295 296 297 297 297 297 296 297 297 297 297 297 296 293 293 293 293 293 292 292 292 292 292
284 285 286 287 288 288 288 288 288 288 289 291 292 292 293 294 294 294 294 294 294 294 295 295 296 296 297 297 297 297 297 297 294 293 293 293 292 292 292 292 292 292
284 285 286 287 288 288 288 287 288 288 288 290 291 292 294 295 294 294 293 293 293 293 294 293 294 296 296 297 297 297 298 295 295 293 293 293 292 291 292 292 292 292
285 286 287 287 287 287 287 287 287 288 289 291 290 291 292 293 293 293 294 293 292 292 292 293 293 294 296 296 297 297 297 296 295 294 294 292 292 292 292 292 291 291
286 286 287 287 287 287 287 287 288 288 289 290 290 291 291 292 293 293 292 292 291 291 292 292 292 292 295 296 296 297 296 295 295 295 293 293 292 292 292 292 291 290
286 287 287 287 287 287 288 287 288 288 289 290 290 291 291 292 292 293 292 292 291 291 291 292 292 291 294 295 296 296 295 295 295 295 293 293 293 292 291 292 291 290
284 286 286 287 287 287 288 288 288 288 289 290 290 292 292 292 292 293 291 292 291 291 291 292 292 291 292 295 295 296 296 294 295 294 293 292 292 292 291 291 291 290
Wind_Speed
18 17 15 14 13 14 15 17 15 16 15 15 14 14 15 14 14 16 17 15 15 16 15 15 14 13 14 15 14 12 12 14 12 11 12 13 12 15 13 14 13 12
19 19 16 15 14 13 14 16 17 18 18 18 16 15 14 15 16 17 16 16 16 16 15 14 14 14 14 12 13 13 12 12 13 10 12 14 12 14 15 17 15 12
17 19 20 19 17 19 19 17 15 16 17 18 17 16 16 15 14 15 17 17 17 17 17 15 15 15 16 15 13 13 13 14 13 11 13 14 11 12 11 10 10 14
16 17 17 18 18 19 18 18 16 16 15 15 17 16 16 14 17 16 16 18 16 17 16 16 17 15 13 15 15 14 14 16 15 14 12 10 12 11 11 11 11 11
14 16 16 17 18 19 21 19 15 13 18 21 19 18 16 16 16 16 17 17 17 17 16 17 17 16 17 14 14 13 13 13 12 13 14 12 11 12 11 11 11 12
12 12 14 15 16 18 20 21 19 15 13 16 19 17 17 18 17 16 14 16 16 16 16 15 16 18 18 17 15 14 13 13 13 15 15 14 11 9 10 12 11 14
13 13 15 14 16 18 18 21 18 16 14 12 14 17 17 17 16 17 17 17 16 15 15 16 17 16 16 16 16 15 14 14 14 15 16 13 13 12 9 12 13 14
12 12 12 12 15 17 19 19 19 15 16 14 13 15 17 19 19 16 15 16 16 15 15 14 15 16 16 15 17 17 16 12 13 15 15 14 13 15 13 11 14 14
10 12 12 14 14 15 18 19 20 15 14 17 17 15 15 18 18 18 17 16 16 15 15 15 15 15 15 16 17 18 17 16 16 17 17 16 15 16 15 14 13 12
10 10 12 13 13 14 16 19 20 17 12 13 13 14 17 17 19 20 18 18 17 16 17 15 15 14 15 15 17 18 18 18 18 18 18 18 18 18 17 15 15 13
9 9 11 13 13 13 16 18 19 19 13 14 13 13 13 14 16 18 19 19 18 18 18 17 17 16 16 15 15 15 18 18 18 18 18 19 19 19 18 18 17 18
9 8 10 12 13 14 15 15 17 19 14 12 16 14 15 13 14 12 16 18 18 17 17 18 17 17 18 18 16 14 15 16 16 17 18 18 18 17 18 17 18 18
9 9 9 10 11 13 13 13 15 18 16 12 12 16 16 14 14 17 14 14 15 17 18 17 16 18 18 17 17 16 16 17 17 17 17 16 17 17 17 17 18 17
10 8 8 9 10 12 13 13 14 15 16 13 11 13 15 16 16 16 14 15 15 13 14 16 17 15 15 16 16 17 17 17 16 17 16 16 15 17 17 17 17 17
9 8 7 8 9 11 13 13 13 14 15 13 12 15 15 16 16 16 15 14 14 15 15 14 16 18 17 17 17 16 14 15 16 16 16 16 16 16 16 17 16 16
9 8 8 8 9 11 12 13 13 13 14 12 13 12 15 17 16 16 17 17 15 14 14 15 17 15 18 24 24 18 15 14 13 14 15 15 15 15 15 15 15 15
8 8 9 10 10 10 10 12 13 13 13 12 12 13 12 13 16 17 16 17 18 16 16 15 14 14 25 26 26 27 21 16 15 14 14 14 15 16 16 14 13 14
11 10 10 11 10 10 11 11 11 13 13 12 12 13 13 13 14 16 17 16 16 17 17 16 15 19 23 24 26 26 22 16 15 15 15 14 14 14 14 14 15 14
14 12 11 11 10 10 10 10 12 14 13 12 13 12 12 14 16 16 15 14 16 16 17 15 14 21 27 29 26 24 23 20 13 14 17 16 15 16 15 15 14 15
18 15 14 13 10 9 9 10 12 14 13 11 11 11 13 13 13 16 15 14 14 15 16 16 17 21 27 28 28 28 26 20 11 13 13 15 17 17 16 16 16 15
19 16 15 14 11 10 9 10 11 13 13 10 9 11 13 15 14 14 14 15 14 13 12 14 14 23 27 27 26 28 29 23 13 13 13 13 14 16 18 18 17 16
16 15 15 14 11 10 10 10 10 11 12 9 9 9 11 13 12 12 14 15 14 14 13 13 12 22 25 27 28 26 27 19 15 15 14 13 13 13 14 15 16 16
14 15 15 12 10 11 11 9 10 10 10 8 9 10 10 11 13 14 13 15 15 14 15 15 13 19 24 26 27 29 24 16 16 15 14 14 13 13 13 13 14 16
15 13 12 10 9 11 11 9 8 8 9 8 9 10 11 11 11 11 11 12 15 16 15 13 11 16 24 25 27 29 25 18 14 14 14 14 13 13 12 12 15 21
12 10 10 9 9 10 10 10 9 8 9 8 9 9 10 10 10 11 11 11 12 15 18 17 12 14 22 23 26 27 23 15 14 13 14 14 13 13 12 12 12 16
16 11 9 9 10 10 10 10 8 7 7 8 9 9 9 10 11 11 13 11 11 12 14 16 15 13 19 27 27 27 26 16 13 14 15 15 13 13 12 11 11 11
Wind_Direction
325 319 305 296 274 252 237 224 209 198 195 196 196 186 184 189 183 185 187 184 184 181 178 175 174 167 165 167 169 172 172 171 169 174 175 178 181 176 179 180 180 183
326 322 315 307 296 263 242 232 218 204 195 193 192 187 186 185 186 182 183 185 183 182 177 173 169 164 162 173 169 167 169 174 175 174 170 178 178 180 180 179 182 183
326 323 322 317 309 297 261 237 219 206 196 194 191 185 183 178 184 187 182 185 184 184 179 172 170 177 169 170 172 172 175 176 175 174 175 177 173 179 178 174 176 178
323 318 319 318 314 308 286 245 218 206 207 197 188 187 181 179 182 184 185 183 185 186 183 170 171 172 172 177 173 178 177 179 179 169 178 181 177 174 172 174 177 179
316 316 317 319 319 314 306 253 230 221 204 197 193 184 178 176 179 182 187 183 184 187 184 180 177 167 169 174 177 178 179 180 174 172 175 178 189 180 174 172 175 178
311 310 312 317 318 319 313 282 228 214 209 200 187 180 183 178 176 180 181 184 183 185 185 180 175 174 173 175 177 181 178 178 173 171 177 182 175 188 175 182 182 183
312 313 313 313 315 314 309 302 252 210 208 195 182 184 178 177 176 177 179 184 183 182 182 180 180 177 175 173 178 180 182 177 170 173 176 180 172 174 181 175 180 186
304 305 306 306 310 309 309 311 283 227 203 192 186 189 182 180 177 173 177 180 182 179 177 180 183 179 179 179 178 178 177 176 173 174 178 177 171 176 176 182 182 183
300 303 303 304 304 305 308 308 305 254 206 191 189 186 188 183 177 170 173 178 181 181 180 181 180 181 184 182 181 178 178 176 174 176 177 175 177 181 180 180 182 183
295 294 299 299 299 301 302 306 308 285 222 195 185 186 187 186 180 176 172 177 180 181 182 179 181 182 183 192 186 180 178 179 178 177 177 177 180 181 180 177 181 181
281 287 292 294 296 296 298 303 305 300 240 200 179 173 183 181 182 178 176 176 180 182 184 181 181 178 184 191 195 187 181 180 181 180 178 179 182 181 177 178 179 184
271 276 282 290 293 293 295 298 301 303 260 213 184 175 168 172 172 180 179 179 179 182 183 183 178 180 184 188 191 190 185 183 182 183 182 181 181 179 177 180 181 185
267 265 272 285 291 291 292 294 298 301 280 223 200 176 168 172 176 174 179 183 184 178 178 181 183 182 183 187 187 186 189 184 183 185 184 183 182 178 178 182 184 183
268 264 268 280 287 290 288 289 293 297 290 238 199 187 177 176 175 177 175 178 180 179 180 178 180 185 184 182 189 191 189 191 185 184 184 183 180 178 178 182 182 182
269 266 264 274 284 287 286 286 290 293 292 251 208 192 184 183 180 177 172 178 181 180 177 180 187 185 183 186 188 192 194 191 188 187 183 181 180 180 180 182 182 181
264 267 268 269 279 280 280 282 287 291 289 261 211 201 188 181 180 178 176 180 181 183 183 183 186 188 188 187 186 185 191 193 190 189 187 182 178 179 182 185 185 183
267 266 264 269 272 275 276 279 284 289 284 261 225 189 187 181 176 179 181 180 181 181 184 187 189 190 186 187 193 190 185 186 186 188 188 188 184 179 179 181 186 190
280 279 274 272 275 275 276 278 282 285 277 258 230 195 183 177 182 183 182 180 181 182 186 189 188 184 185 192 195 193 187 187 188 184 186 188 186 183 181 180 182 186
285 285 280 277 272 272 273 277 281 282 271 250 228 204 177 182 183 182 185 181 182 184 188 187 191 187 186 186 190 196 192 188 192 192 185 186 185 183 182 184 183 184
276 280 279 273 268 266 267 271 279 278 266 243 225 208 183 182 183 183 182 184 188 191 193 190 189 186 189 189 187 187 190 190 187 191 197 190 184 183 183 184 185 183
267 268 272 269 262 261 260 266 276 279 262 237 221 209 192 185 184 185 185 183 186 190 191 191 197 188 185 187 190 188 186 185 184 190 196 196 192 186 184 183 185 186
261 262 263 259 258 260 260 266 275 271 257 232 213 211 207 186 187 185 185 187 186 184 186 194 195 191 189 187 187 188 187 184 185 188 193 198 195 195 190 187 187 184
255 252 248 248 254 261 264 271 281 273 251 227 211 205 204 193 184 186 186 184 183 185 190 192 190 193 193 191 188 186 185 189 187 187 191 192 195 193 193 190 192 189
255 242 242 244 253 260 266 275 279 270 244 218 210 200 200 199 184 183 184 186 185 187 189 190 191 191 191 192 192 189 184 187 186 187 190 192 193 191 193 195 195 192
266 247 241 245 252 260 265 274 278 269 241 212 207 204 201 194 186 183 185 186 189 187 184 186 189 189 191 192 193 193 188 183 182 185 187 191 190 192 191 193 196 201
254 250 246 246 251 259 265 266 270 268 236 213 206 200 200 193 191 188 183 188 187 189 190 191 188 187 192 192 190 190 187 182 180 182 190 188 187 186 187 195 193 195